GW3968 Weather Reports


time (UTC)temp
F
wind
direction
speed
knots
gust
knots
rain 1hr
in
rain 24hr
in
rain mn
in
humidity
%
barometer
mb
20260506170221 64 265 1.7 2.6 0.00 0.00 0.00 74 1017.5
20260506165720 64 292 2.6 2.6 0.00 0.00 0.00 74 1017.3
20260506165217 64 2 2.6 4.3 0.00 0.00 0.00 73 1017.4
20260506164714 63 228 2.6 2.6 0.00 0.00 0.00 75 1017.2
20260506164211 63 219 1.7 2.6 0.00 0.00 0.00 75 1017.4
20260506163707 63 200 0.9 0.9 0.00 0.00 0.00 75 1017.3
20260506163202 62 232 0.9 1.7 0.00 0.00 0.00 77 1017.6
20260506162658 62 260 1.7 1.7 0.00 0.00 0.00 76 1017.4
20260506162156 62 257 1.7 2.6 0.00 0.00 0.00 76 1017.5
20260506161653 62 202 0.0 0.9 0.00 0.00 0.00 77 1017.4
20260506161149 61 227 0.9 1.7 0.00 0.00 0.00 79 1017.3
20260506160647 61 236 0.9 0.9 0.00 0.00 0.00 80 1017.3
20260506160144 61 261 0.9 1.7 0.00 0.00 0.00 80 1017.4
20260506155643 60 175 0.9 0.9 0.00 0.00 0.00 81 1017.6
20260506155139 60 212 0.9 1.7 0.00 0.00 0.00 82 1017.4
20260506153241 57 232 0.9 1.7 0.00 0.00 0.00 85 1017.4
20260506152738 58 225 1.7 1.7 0.00 0.00 0.00 84 1017.4
20260506152236 58 207 0.9 0.9 0.00 0.00 0.00 85 1017.5
20260506151735 57 197 0.0 0.9 0.00 0.00 0.00 85 1017.5
20260506151231 57 197 0.9 1.7 0.00 0.00 0.00 85 1017.7
20260506150727 58 198 0.9 0.9 0.00 0.00 0.00 85 1017.6
20260506150224 56 192 0.0 0.0 0.00 0.00 0.00 88 1017.7
20260506145722 56 252 1.7 1.7 0.00 0.00 0.00 88 1017.6
20260506145218 56 231 0.9 1.7 0.00 0.00 0.00 87 1017.5
20260506144715 57 189 0.0 0.0 0.00 0.00 0.00 88 1017.6
20260506144212 55 194 0.0 0.0 0.00 0.00 0.00 89 1017.5
20260506143710 54 195 0.0 0.9 0.00 0.00 0.00 90 1017.6
20260506143208 54 188 0.0 0.9 0.00 0.00 0.00 90 1017.5
20260506142706 53 195 0.0 0.0 0.00 0.00 0.00 92 1017.4
20260506142203 52 194 0.0 0.0 0.00 0.00 0.00 93 1017.4
20260506141701 51 203 0.9 0.9 0.00 0.00 0.00 94 1017.4
20260506141159 50 198 0.0 0.0 0.00 0.00 0.00 95 1017.2
20260506140656 50 196 0.0 0.0 0.00 0.00 0.00 97 1017.1
20260506140153 50 196 0.0 0.0 0.00 0.00 0.00 97 1017.1
20260506135650 49 197 0.0 0.0 0.00 0.00 0.00 97 1017.1
20260506135146 49 194 0.0 0.0 0.00 0.00 0.00 97 1017.1
20260506134643 49 190 0.0 0.0 0.00 0.00 0.00 97 1017.3
20260506134139 49 198 0.0 0.0 0.00 0.00 0.00 97 1016.7
20260506133636 48 189 0.0 0.0 0.00 0.00 0.00 97 1016.8
20260506133133 48 188 0.0 0.0 0.00 0.00 0.00 98 1016.8
20260506132631 48 192 0.0 0.0 0.00 0.00 0.00 98 1016.8
20260506132127 48 191 0.9 0.9 0.00 0.00 0.00 98 1016.7
20260506131625 48 183 0.9 0.9 0.00 0.00 0.00 98 1016.7
20260506131121 48 195 0.0 0.0 0.00 0.00 0.00 98 1016.8
20260506130618 48 195 0.0 0.0 0.00 0.00 0.00 98 1016.7
20260506130116 48 192 0.0 0.0 0.00 0.00 0.00 98 1016.6
20260506125614 48 179 0.0 0.0 0.00 0.00 0.00 98 1016.6
20260506125111 48 193 0.0 0.0 0.00 0.00 0.00 98 1016.5
20260506124609 48 190 0.0 0.0 0.00 0.00 0.00 98 1016.7
20260506124106 48 194 0.0 0.0 0.00 0.00 0.00 98 1016.6
20260506123604 48 195 0.0 0.0 0.00 0.00 0.00 98 1016.7
20260506123102 48 190 0.0 0.0 0.00 0.00 0.00 98 1016.8
20260506122558 48 194 0.0 0.0 0.00 0.00 0.00 98 1016.8
20260506122057 48 190 0.9 0.9 0.00 0.00 0.00 98 1016.8
20260506121554 48 192 0.0 0.9 0.00 0.00 0.00 98 1016.8
20260506121050 48 195 0.0 0.0 0.00 0.00 0.00 98 1016.8
20260506120548 48 193 0.0 0.0 0.00 0.00 0.00 98 1016.9
20260506120045 48 187 0.0 0.0 0.00 0.00 0.00 98 1016.8
20260506115543 48 191 0.0 0.0 0.00 0.00 0.00 98 1016.8
20260506115041 48 192 0.0 0.0 0.00 0.00 0.00 98 1016.7
20260506114538 48 180 0.0 0.0 0.00 0.00 0.00 98 1016.7
20260506114037 48 195 0.0 0.0 0.00 0.00 0.00 98 1016.6
20260506113534 48 197 0.0 0.0 0.00 0.00 0.00 98 1016.8
20260506113031 48 196 0.0 0.0 0.00 0.00 0.00 98 1016.7
20260506112528 48 194 0.0 0.0 0.00 0.00 0.00 98 1016.6
20260506112025 48 193 0.0 0.0 0.00 0.00 0.00 98 1016.8
20260506111523 48 195 0.0 0.0 0.00 0.00 0.00 98 1016.7
20260506111020 48 192 0.0 0.0 0.00 0.00 0.00 98 1016.7
20260506110518 48 195 0.0 0.0 0.00 0.00 0.00 98 1016.7
20260506110015 49 190 0.0 0.0 0.00 0.00 0.00 98 1016.7
20260506105510 49 192 0.0 0.0 0.00 0.00 0.00 98 1016.7
20260506105008 49 192 0.0 0.0 0.00 0.00 0.00 98 1016.4
20260506104506 49 194 0.9 0.9 0.00 0.00 0.00 98 1016.6
20260506104004 49 196 0.0 0.9 0.00 0.00 0.00 97 1016.6
20260506103501 49 192 0.9 0.9 0.00 0.00 0.00 97 1016.7
20260506102957 49 191 0.9 0.9 0.00 0.00 0.00 97 1016.5
20260506102456 49 197 0.0 0.0 0.00 0.00 0.00 97 1016.6
20260506101953 49 191 0.0 0.9 0.00 0.00 0.00 97 1016.7
20260506101449 49 189 0.0 0.0 0.00 0.00 0.00 97 1016.6
20260506100946 49 185 0.9 0.9 0.00 0.00 0.00 98 1016.8
20260506100445 49 189 0.0 0.0 0.00 0.00 0.00 98 1016.7
20260506095942 49 188 0.0 0.0 0.00 0.00 0.00 98 1016.6
20260506095441 49 195 0.0 0.0 0.00 0.00 0.00 98 1016.6
20260506094936 49 194 0.0 0.0 0.00 0.00 0.00 98 1016.6
20260506094435 49 192 0.0 0.0 0.00 0.00 0.00 98 1016.7
20260506093932 49 195 0.0 0.0 0.00 0.00 0.00 98 1016.9
20260506093430 49 194 0.0 0.0 0.00 0.00 0.00 98 1016.7
20260506092928 49 191 0.0 0.0 0.00 0.00 0.00 98 1016.8
20260506092426 49 194 0.0 0.0 0.00 0.00 0.00 98 1016.8
20260506091922 49 196 0.0 0.0 0.00 0.00 0.00 98 1016.7
20260506091420 49 197 0.0 0.0 0.00 0.00 0.00 98 1016.9
20260506090917 49 198 0.0 0.0 0.00 0.00 0.00 98 1017.0
20260506090415 49 195 0.0 0.0 0.00 0.00 0.00 98 1017.0
20260506085911 50 199 0.0 0.0 0.00 0.00 0.00 98 1017.0
20260506085408 50 198 0.0 0.0 0.00 0.00 0.00 98 1016.8
20260506084904 50 191 0.0 0.0 0.00 0.00 0.00 98 1016.9
20260506084401 50 197 0.0 0.0 0.00 0.00 0.00 98 1016.9
20260506083857 50 195 0.0 0.0 0.00 0.00 0.00 98 1017.0
20260506083355 50 190 0.0 0.0 0.00 0.00 0.00 98 1017.1
20260506082852 50 193 0.0 0.0 0.00 0.00 0.00 98 1017.0
20260506082349 50 194 0.0 0.0 0.00 0.00 0.00 99 1017.2
20260506081845 50 187 0.0 0.0 0.00 0.00 0.00 98 1017.2
20260506081344 50 197 0.0 0.0 0.00 0.00 0.00 98 1017.1
20260506080841 50 192 0.0 0.9 0.00 0.00 0.00 99 1017.1
20260506080338 51 192 0.0 0.0 0.00 0.00 0.00 99 1017.0
20260506073321 51 198 0.0 0.0 0.00 0.00 0.00 99 1017.1
20260506072818 51 198 0.0 0.0 0.00 0.00 0.00 98 1017.0
20260506072315 51 198 0.0 0.0 0.00 0.00 0.00 98 1016.9
20260506071813 51 197 0.0 0.0 0.00 0.00 0.00 98 1017.2
20260506071311 51 197 0.0 0.0 0.00 0.00 0.00 98 1017.1
20260506070807 51 198 0.0 0.0 0.00 0.00 0.00 98 1016.8
20260506070305 51 198 0.0 0.0 0.00 0.00 0.00 98 1016.8
20260506062241 52 198 0.0 0.0 0.00 0.00 0.00 97 1016.7
20260506061737 52 198 0.0 0.0 0.00 0.00 0.00 97 1016.8
20260506061235 52 197 0.0 0.0 0.00 0.00 0.00 97 1016.6
20260506060733 52 197 0.0 0.0 0.00 0.00 0.00 97 1016.6
20260506060230 52 197 0.0 0.0 0.00 0.00 0.00 97 1016.7
20260506051202 53 202 0.0 0.0 0.00 0.00 0.00 95 1016.5
20260506050700 53 206 0.0 0.9 0.00 0.00 0.00 95 1016.5
20260506050157 53 222 0.9 0.9 0.00 0.00 0.00 95 1016.5
20260506044648 54 205 0.0 0.0 0.00 0.00 0.00 94 1016.2
20260506044145 54 210 0.9 0.9 0.00 0.00 0.00 94 1016.0
20260506043642 54 232 0.9 1.7 0.00 0.00 0.00 94 1016.0
20260506043140 54 223 0.9 0.9 0.00 0.00 0.00 94 1015.9
20260506042639 54 219 1.7 1.7 0.00 0.00 0.00 94 1015.9
20260506042137 54 219 0.9 0.9 0.00 0.00 0.00 93 1015.7
20260506041635 54 214 0.9 1.7 0.00 0.00 0.00 93 1015.9
20260506041131 55 204 0.0 0.9 0.00 0.00 0.00 93 1015.8
20260506040629 55 292 2.6 2.6 0.00 0.00 0.00 93 1015.8
20260506040126 55 331 1.7 1.7 0.00 0.00 0.00 93 1015.7
20260506035622 55 271 2.6 2.6 0.00 0.00 0.00 93 1015.6
20260506035119 55 296 3.5 4.3 0.00 0.00 0.00 92 1015.5
20260506034616 55 250 1.7 1.7 0.00 0.00 0.00 92 1015.2
20260506034114 55 209 1.7 1.7 0.00 0.00 0.00 92 1015.3
20260506033611 55 249 0.9 0.9 0.00 0.00 0.00 92 1015.3
20260506033108 55 232 0.9 1.7 0.00 0.00 0.00 91 1015.1
20260506032605 55 295 1.7 2.6 0.00 0.00 0.00 91 1014.9
20260506032102 55 292 1.7 2.6 0.00 0.00 0.00 90 1014.7
20260506031559 55 229 1.7 2.6 0.00 0.00 0.00 90 1014.7
20260506031056 55 243 2.6 4.3 0.00 0.00 0.00 89 1014.9
20260506030554 56 202 0.9 0.9 0.00 0.00 0.00 89 1014.7
20260506030051 56 223 1.7 1.7 0.00 0.00 0.00 88 1014.8
20260506025548 56 211 1.7 1.7 0.00 0.00 0.00 88 1014.6
20260506025044 56 206 1.7 1.7 0.00 0.00 0.00 87 1014.5
20260506024541 56 305 2.6 2.6 0.00 0.00 0.00 86 1014.4
20260506024037 57 305 2.6 2.6 0.00 0.00 0.00 86 1014.4
20260506023533 57 246 1.7 1.7 0.00 0.00 0.00 85 1014.4
20260506023031 57 281 2.6 2.6 0.00 0.00 0.00 85 1014.4
20260506022529 57 262 2.6 4.3 0.00 0.00 0.00 84 1014.4
20260506022026 57 299 2.6 2.6 0.00 0.00 0.00 84 1014.2
20260506021523 58 209 1.7 1.7 0.00 0.00 0.00 83 1014.4
20260506021020 58 313 2.6 2.6 0.00 0.00 0.00 83 1014.3
20260506020518 58 234 2.6 5.2 0.00 0.00 0.00 82 1014.4
20260506020015 59 317 2.6 4.3 0.00 0.00 0.00 81 1014.3
20260506015513 59 235 3.5 5.2 0.00 0.00 0.00 81 1014.0
20260506015009 59 225 3.5 5.2 0.00 0.00 0.00 80 1014.2
20260506014507 59 290 2.6 4.3 0.00 0.00 0.00 79 1014.1
20260506014003 59 25 1.7 1.7 0.00 0.00 0.00 79 1014.0
20260506013500 59 241 2.6 2.6 0.00 0.00 0.00 78 1014.0
20260506012956 60 305 3.5 5.2 0.00 0.00 0.00 76 1013.9
20260506012453 61 284 3.5 5.2 0.00 0.00 0.00 75 1013.8
20260506011950 61 248 1.7 1.7 0.00 0.00 0.00 76 1013.8
20260506011447 61 318 3.5 6.1 0.00 0.00 0.00 75 1014.0
20260506010944 61 284 2.6 2.6 0.00 0.00 0.00 75 1013.9
20260506010443 61 312 5.2 6.1 0.00 0.00 0.00 76 1014.0
20260506005939 62 290 6.1 8.7 0.00 0.00 0.00 74 1014.1
20260506005437 61 270 4.3 7.0 0.00 0.00 0.00 74 1014.0
20260506004932 62 358 4.3 7.8 0.00 0.00 0.00 72 1013.9
20260506004430 62 218 2.6 4.3 0.00 0.00 0.00 73 1013.8
20260506003926 62 224 2.6 5.2 0.00 0.00 0.00 73 1013.8
20260506003423 62 286 4.3 7.0 0.00 0.00 0.00 73 1013.7
20260506002919 62 287 5.2 7.8 0.00 0.00 0.00 73 1013.6
20260506002415 62 305 4.3 6.1 0.00 0.00 0.00 73 1013.8
20260506001910 63 324 6.1 7.8 0.00 0.00 0.00 73 1013.8
20260506001408 63 319 5.2 7.0 0.00 0.00 0.00 72 1013.7
20260506000905 63 331 4.3 6.1 0.00 0.00 0.00 72 1013.7
20260506000403 64 6 5.2 7.8 0.00 0.00 0.00 71 1013.7
20260505235859 63 335 3.5 4.3 0.00 0.00 0.00 72 1013.7
20260505235357 63 277 5.2 6.1 0.00 0.00 0.00 71 1013.8
20260505234853 63 303 6.1 8.7 0.00 0.00 0.00 69 1013.8
20260505234352 61 299 3.5 5.2 0.00 0.00 0.00 72 1013.6
20260505233848 62 315 3.5 5.2 0.00 0.00 0.00 71 1013.6
20260505233346 63 332 3.5 5.2 0.00 0.00 0.00 69 1013.7
20260505232843 63 280 1.7 1.7 0.00 0.00 0.00 67 1013.6
20260505232341 63 291 4.3 7.0 0.00 0.00 0.00 68 1013.8
20260505231837 62 220 4.3 7.8 0.00 0.00 0.00 69 1013.7
20260505231335 63 248 4.3 5.2 0.00 0.00 0.00 68 1013.7
20260505230833 63 352 7.8 9.6 0.00 0.00 0.00 68 1013.7
20260505230330 63 349 6.1 7.0 0.00 0.00 0.00 68 1013.9
20260505225826 63 333 5.2 7.8 0.00 0.00 0.00 68 1013.9
20260505225324 63 260 3.5 4.3 0.00 0.00 0.00 68 1013.9
20260505224819 64 265 3.5 5.2 0.00 0.00 0.00 67 1014.0
20260505224317 65 332 4.3 5.2 0.00 0.00 0.00 63 1014.2
20260505223814 65 296 1.7 1.7 0.00 0.00 0.00 64 1014.2
20260505223311 65 301 3.5 6.1 0.00 0.00 0.00 63 1014.2
20260505222806 65 287 5.2 7.8 0.00 0.00 0.00 65 1014.1
20260505222305 65 304 5.2 7.0 0.00 0.00 0.00 62 1014.2
20260505221800 65 297 4.3 6.1 0.00 0.00 0.00 65 1014.2
20260505221257 65 297 4.3 6.1 0.00 0.00 0.00 63 1014.2
20260505220754 66 356 4.3 6.1 0.00 0.00 0.00 62 1014.3
20260505220251 65 346 3.5 5.2 0.00 0.00 0.00 64 1014.3
20260505215749 65 280 2.6 4.3 0.00 0.00 0.00 64 1014.7
20260505215246 65 271 4.3 6.1 0.00 0.00 0.00 63 1014.5
20260505214744 64 229 1.7 1.7 0.00 0.00 0.00 63 1014.4
20260505214241 64 340 4.3 6.1 0.00 0.00 0.00 63 1014.5
20260505213738 64 307 7.8 11.3 0.00 0.00 0.00 63 1014.5
20260505213236 65 297 6.1 11.3 0.00 0.00 0.00 62 1014.6
20260505212731 66 283 1.7 2.6 0.00 0.00 0.00 62 1014.6
20260505212229 65 307 5.2 6.1 0.00 0.00 0.00 63 1014.7
20260505211726 65 12 4.3 6.1 0.00 0.00 0.00 62 1014.6
20260505211223 64 231 2.6 2.6 0.00 0.00 0.00 63 1014.6
20260505210719 64 299 6.1 7.8 0.00 0.00 0.00 63 1014.7
20260505210216 65 358 8.7 12.2 0.00 0.00 0.00 61 1014.5
20260505205714 64 212 2.6 2.6 0.00 0.00 0.00 63 1014.4
20260505205212 64 304 5.2 6.1 0.00 0.00 0.00 63 1014.6
20260505204708 63 331 5.2 6.1 0.00 0.00 0.00 64 1014.5
20260505204206 64 237 6.1 9.6 0.00 0.00 0.00 64 1014.7
20260505203703 64 274 6.1 7.8 0.00 0.00 0.00 63 1014.6
20260505203200 64 251 6.1 7.8 0.00 0.00 0.00 64 1014.6
20260505202655 63 292 2.6 2.6 0.00 0.00 0.00 65 1014.8
20260505202152 64 352 3.5 5.2 0.00 0.00 0.00 63 1014.7
20260505201648 64 343 4.3 5.2 0.00 0.00 0.00 62 1014.6
20260505201146 65 321 6.1 7.0 0.00 0.00 0.00 60 1014.6
20260505200644 66 348 4.3 6.1 0.00 0.00 0.00 60 1014.6
20260505200141 66 239 2.6 4.3 0.00 0.00 0.00 60 1014.7
20260505195637 66 324 3.5 5.2 0.00 0.00 0.00 60 1014.7
20260505195134 66 347 4.3 6.1 0.00 0.00 0.00 62 1014.5
20260505194631 66 323 4.3 5.2 0.00 0.00 0.00 61 1014.6
20260505194127 66 291 4.3 5.2 0.00 0.00 0.00 62 1014.6
20260505193624 66 321 3.5 4.3 0.00 0.00 0.00 62 1014.6
20260505193121 66 220 0.9 1.7 0.00 0.00 0.00 63 1014.7
20260505192620 66 228 3.5 6.1 0.00 0.00 0.00 61 1014.6
20260505192117 66 281 3.5 4.3 0.00 0.00 0.00 63 1014.7
20260505191615 67 291 4.3 7.0 0.00 0.00 0.00 60 1014.6
20260505191113 66 275 6.1 8.7 0.00 0.00 0.00 62 1014.6
20260505190608 66 282 4.3 6.1 0.00 0.00 0.00 62 1014.6
20260505190103 65 300 2.6 2.6 0.00 0.00 0.00 62 1014.6
20260505185600 65 286 2.6 2.6 0.00 0.00 0.00 64 1014.6
20260505185057 65 262 2.6 2.6 0.00 0.00 0.00 63 1014.5
20260505184553 65 347 4.3 5.2 0.00 0.00 0.00 63 1014.7
20260505184050 64 263 2.6 2.6 0.00 0.00 0.00 66 1014.6
20260505183547 65 198 0.9 1.7 0.00 0.00 0.00 65 1014.5
20260505183045 65 197 4.3 6.1 0.00 0.00 0.00 64 1014.5
20260505182541 64 196 2.6 2.6 0.00 0.00 0.00 64 1014.6
20260505182038 63 205 3.5 6.1 0.00 0.00 0.00 65 1014.3
20260505181534 63 108 2.6 2.6 0.00 0.00 0.00 67 1014.5
20260505181032 63 94 4.3 4.3 0.00 0.00 0.00 66 1014.5
20260505180528 64 192 0.0 0.9 0.00 0.00 0.00 66 1014.7
20260505180027 66 104 2.6 2.6 0.00 0.00 0.00 62 1014.6
20260505175526 64 195 1.7 2.6 0.00 0.00 0.00 64 1014.4
20260505175023 64 105 4.3 7.0 0.00 0.00 0.00 62 1014.6
20260505174520 63 176 2.6 2.6 0.00 0.00 0.00 65 1014.5
20260505174016 62 195 3.5 5.2 0.00 0.00 0.00 66 1014.5
20260505173513 62 187 2.6 2.6 0.00 0.00 0.00 66 1014.5
20260505173010 63 112 2.6 2.6 0.00 0.00 0.00 67 1014.3
20260505172508 63 179 0.9 1.7 0.00 0.00 0.00 65 1014.3
20260505172008 63 176 0.9 0.9 0.00 0.00 0.00 67 1014.4
20260505171505 62 182 0.9 1.7 0.00 0.00 0.00 69 1014.1
20260505171001 61 181 2.6 4.3 0.00 0.00 0.00 70 1014.2
20260505170458 62 183 2.6 4.3 0.00 0.00 0.00 69 1014.4